This demonstration page uses our WeatherBlox Daily Observations layout. Learn more.

Left ArrowRight Arrow

39.08367, -84.50855

Hourly Observations for October 2, 2015

Temp ( °F °C ) Dew Point ( °F °C ) Humidity (%) Winds ( mph kmh ) Pressure ( in mb ) Visibility ( mi km ) Precip ( " mm )
12:14 am 00:14 Cloudy 57 14 48 9 72 72 NNE 9 15 30.15 1021 10 16 0.00 0.00
12:53 am 00:53 Cloudy 57 13.9 49 9.4 74 74 NNE 10 17 30.12 1020 10 16 0.00 0.00
1:53 am 01:53 Cloudy 56 13.3 49 9.4 77 77 NNE 10 17 30.11 1020 10 16 0.00 0.00
2:53 am 02:53 Cloudy 56 13.3 49 9.4 77 77 NE 13 20 30.09 1019 10 16 0.00 0.00
3:53 am 03:53 Mostly Cloudy 56 13.3 49 9.4 77 77 NE 13 20 30.09 1019 10 16 0.00 0.00
4:16 am 04:16 Mostly Cloudy 55 13 48 9 77 77 NE 16 26 30.09 1019 10 16 0.00 0.00
4:53 am 04:53 Cloudy 55 12.8 48 8.9 77 77 NNE 14 22 30.09 1019 10 16 0.00 0.00
5:53 am 05:53 Cloudy 54 12.2 48 8.9 80 80 NE 10 17 30.10 1019 10 16 0.00 0.00
6:53 am 06:53 Cloudy 53 11.7 47 8.3 80 80 NE 12 19 30.09 1019 10 16 0.00 0.00
7:53 am 07:53 Cloudy 53 11.7 46 7.8 77 77 NNE 13 20 30.11 1020 10 16 0.00 0.00
8:53 am 08:53 Cloudy 52 11.1 46 7.8 80 80 NE 14 22 30.11 1020 10 16 0.00 0.00
9:53 am 09:53 Cloudy 53 11.7 46 7.8 77 77 NE 14 22 30.12 1020 10 16 0.00 0.00
10:53 am 10:53 Cloudy 53 11.7 45 7.2 74 74 NNE 14 22 30.12 1020 10 16 0.00 0.00
11:09 am 11:09 Cloudy 53 11.7 45 7.2 74 74 NNE 13 20 30.12 1020 10 16 0.00 0.00
11:53 am 11:53 Cloudy 54 12.2 45 7.2 72 72 NE 17 28 30.11 1020 10 16 0.00 0.00
12:53 pm 12:53 Partly Cloudy 57 13.9 46 7.8 67 67 NNE 18 30 30.09 1019 10 16 0.00 0.00
1:53 pm 13:53 Cloudy 58 14.4 46 7.8 65 65 NNE 14 22 30.09 1019 10 16 0.00 0.00
2:53 pm 14:53 Cloudy 58 14.4 47 8.3 67 67 NE 14 22 30.07 1018 10 16 0.00 0.03
3:53 pm 15:53 Cloudy 57 13.9 46 7.8 67 67 NE 18 30 30.07 1018 10 16 0.00 0.03
4:53 pm 16:53 Cloudy with Light Rain 57 13.9 46 7.8 67 67 NE 18 30 30.06 1018 10 16 0.00 0.03
5:53 pm 17:53 Cloudy with Light Rain 56 13.3 46 7.8 70 70 NNE 15 24 30.07 1018 10 16 0.00 0.03
6:53 pm 18:53 Cloudy with Light Rain 51 10.6 49 9.4 92 92 NE 15 24 30.09 1019 6 10 0.04 1.02
7:53 pm 19:53 Cloudy with Light Rain 50 10 N/A N/A NE 14 22 30.10 1019 10 16 0.03 0.76
8:53 pm 20:53 Cloudy with Light Rain 49 9.4 46 7.8 90 90 NE 13 20 30.10 1019 6 10 0.03 0.76
9:53 pm 21:53 Cloudy with Light Rain 48 8.9 47 8.3 96 96 NE 12 19 30.10 1019 6 10 0.04 1.02

Powered by AerisWeather